Maryland Science Center, MD

6:43 PM EST on December 15, 2019 (GMT -0500)
Maryland Science Center

Weather History for KDMH - October, 2019

Change the Weather History Date:

Wednesday, October 2, 2019

  Actual Average Record
Temperature  
Mean Temperature 84 °F 65 °F  
Max Temperature 95 °F 74 °F 95 °F (2019)
Min Temperature 73 °F 57 °F 46 °F (2003)
Degree Days  
Heating Degree Days 0 3  
Month to date heating degree days 0 6  
Since 1 July heating degree days 0 24  
Cooling Degree Days 19 3  
Month to date cooling degree days 33 6  
Year to date cooling degree days 2022 1631  
Growing Degree Days 34 (Base 50)    
Moisture  
Dew Point 65 °F    
Average Humidity 59    
Maximum Humidity 84    
Minimum Humidity 33    
Precipitation  
Precipitation 0.00 in 0.11 in 0.78 in (2015)
Month to date precipitation 0.00 0.22  
Year to date precipitation 30.87 31.68  
Sea Level Pressure  
Sea Level Pressure 29.88 in    
Wind  
Wind Speed - (North)    
Max Wind Speed -    
Max Gust Speed -    
T = Trace of Precipitation, MM = Missing Value Source: NWS Daily Summary

Daily Weather History Graph

Daily Weather History Graph

Search for Another Location

Airport or City:

Astronomy

Oct. 02, 2019 Rise Set
Actual Time 7:03 AM EDT 6:47 PM EDT
Civil Twilight 6:36 AM EDT 7:14 PM EDT
Nautical Twilight 6:05 AM EDT 7:45 PM EDT
Astronomical Twilight 5:34 AM EDT 8:16 PM EDT
Moon 11:24 AM EDT (10/2) 9:41 PM EDT (10/2)
Length of Visible Light 12h 37m
Length of Day
11h 44m
Waxing Crescent, 20% of the Moon is Illuminated
Oct 2
Waxing Crescent
Oct 5
First Quarter
Oct 13
Full
Oct 21
Last Quarter
Oct 27
New

Hourly Weather History & Observations

Time (EDT) Temp. Heat Index Dew Point Humidity Pressure Visibility Wind Dir Wind Speed Gust Speed Precip Events Conditions
12:54 AM 73.9 °F - 66.9 °F 79% 29.93 in - North - - N/A   Unknown
1:54 AM 73.9 °F - 66.9 °F 79% 29.93 in - North - - N/A   Unknown
2:54 AM 73.9 °F - 66.9 °F 79% 29.91 in - North - - N/A   Unknown
3:54 AM 73.9 °F - 66.9 °F 79% 29.91 in - North - - N/A   Unknown
4:54 AM 73.9 °F - 68.0 °F 82% 29.91 in - North - - N/A   Unknown
5:54 AM 73.9 °F - 68.0 °F 82% 29.91 in - North - - N/A   Unknown
6:54 AM 73.0 °F - 68.0 °F 84% 29.91 in - North - - N/A   Unknown
7:54 AM 75.0 °F - 69.1 °F 82% 29.92 in - North - - N/A   Unknown
9:54 AM 86.0 °F 90.1 °F 69.1 °F 57% 29.91 in - North - - N/A   Unknown
11:54 AM 93.9 °F 95.6 °F 64.0 °F 37% 29.88 in - North - - N/A   Unknown
12:54 PM 95.0 °F 95.6 °F 62.1 °F 33% 29.87 in - North - - N/A   Unknown
1:54 PM 93.9 °F 94.8 °F 62.1 °F 35% 29.85 in - North - - N/A   Unknown
2:54 PM 93.0 °F 94.2 °F 63.0 °F 37% 29.84 in - North - - N/A   Unknown
3:54 PM 93.9 °F 94.0 °F 61.0 °F 33% 29.83 in - North - - N/A   Unknown
4:54 PM 93.0 °F 94.2 °F 63.0 °F 37% 29.82 in - North - - N/A   Unknown
5:54 PM 91.9 °F 92.9 °F 63.0 °F 38% 29.82 in - North - - N/A   Unknown
6:54 PM 91.0 °F 91.9 °F 63.0 °F 39% 29.82 in - North - - N/A   Unknown
7:54 PM 89.1 °F 91.0 °F 64.9 °F 45% 29.85 in - North - - N/A   Unknown
8:54 PM 87.1 °F 88.3 °F 64.0 °F 46% 29.86 in - North - - N/A   Unknown
9:54 PM 87.1 °F 88.3 °F 64.0 °F 46% 29.88 in - North - - N/A   Unknown
10:54 PM 87.1 °F 87.8 °F 63.0 °F 44% 29.88 in - North - - N/A   Unknown
11:54 PM 86.0 °F 87.6 °F 64.9 °F 49% 29.89 in - North - - N/A   Unknown